サイディング・スプリング彗星

P/2006 R1 ( Siding Spring )

English version
Home page
Updated on December 31, 2010

---------------------------------------------------------------------

・ プロフィール

発見日 2006年9月1日
発見光度 17.7等
発見者 Siding Spring Survey

・ 軌道要素

Epoch 2006 Sept. 22.0 TT = JDT 2454000.5
T 2006 Sept. 3.66793 TT                                 MPC
q   1.6711270            (2000.0)            P               Q
n   0.07390889     Peri.  249.30630     +0.82490542     -0.52343292
a   5.6234772      Node   218.63300     -0.30045175     -0.72580961
e   0.7028303      Incl.  160.01085     -0.47881081     -0.44633888
P  13.3
From 51 observations 2006 Sept. 1-26, mean residual 0".4.

・ 光度変化

        m1 = 16.0 + 5 logΔ + 10.0 log r

---------------------------------------------------------------------

軌道要素はM.P.E.C. 2010-X76に掲載されたものです。
光度グラフはComet for Windowsで作成したものです。

---------------------------------------------------------------------

Copyright(C) Seiichi Yoshida (comet@aerith.net). All rights reserved.